Regional Weather Roundup
Issued by NWS

Home | Current Version | Previous Version | Graphics & Text | Print | Product List | Glossary On
Versions: 1 2 3 4 5 6 7 8 9 10 11 12 13 14 15 16 17 18 19 20 21 22 23 24 25 26 27
000
ASUS45 KBOU 180806
RWRCO

WEATHER ROUNDUP FOR COLORADO
NATIONAL WEATHER SERVICE DENVER/BOULDER CO
200 AM MDT FRI APR 18 2014

NOTE: "FAIR" INDICATES FEW OR NO CLOUDS BELOW 12000 FEET WITH NO
SIGNIFICANT WEATHER AND/OR OBSTRUCTIONS TO VISIBILITY.

COZ001>005-013-030-031-180900-
...NORTHWEST COLORADO...

CITY           SKY/WX    TMP DP  RH WIND       PRES   REMARKS
CRAIG          CLEAR     34  26  72 E3        30.07F
HAYDEN         CLEAR     39  23  52 E10       30.10F
MEEKER         CLEAR     36  27  69 NE5       30.09S
MOUNT WERNER   CLEAR     37  14  38 SW14      30.23S
STEAMBOAT SPGS CLEAR     36  22  58 CALM      30.10S
WALDEN         PTCLDY    32  21  64 SE7       30.12S WCI  26
$$

COZ006>008-011-180900-
...WEST CENTRAL VALLEYS...

CITY           SKY/WX    TMP DP  RH WIND       PRES   REMARKS
GRAND JUNCTION CLEAR     48  27  44 E15       30.02F
MONTROSE       CLEAR     46  27  47 SE9       30.10F
EAGLE          PTCLDY    36  27  69 E5        30.16R
RIFLE          CLEAR     37  28  70 SW7       30.09F
DELTA          CLEAR     45  28  50 E6        30.08F
NUCLA            N/A     50  23  34 E8        30.12F
$$

COZ017>023-064>068-180900-
...SOUTHWEST COLORADO...

CITY           SKY/WX    TMP DP  RH WIND       PRES   REMARKS
DURANGO        CLEAR     36  17  46 CALM      30.17S
CORTEZ         CLEAR     33  22  63 NE5       30.11F WCI  29
PAGOSA SPRINGS CLEAR     37  18  46 CALM      30.23S
TELLURIDE      CLEAR     39  23  52 E8        30.25F
WOLF CREEK PAS CLEAR     30  14  51 SW21G29   30.36S WCI  17
$$

COZ009-010-012-014-032>034-037-058>063-180900-
...CENTRAL COLORADO...

CITY           SKY/WX    TMP DP  RH WIND       PRES   REMARKS
ASPEN          CLEAR     34  22  61 S6        30.17S WCI  29
BUENA VISTA    CLEAR     36  25  65 W5        30.19R
COPPER MTN     PTCLDY    34  14  44 SW13G23   30.31R WCI  25
BERTHOUD PASS  FAIR      27  18  69 W15G30    30.28S WCI  15
COTTONWOOD PAS CLEAR     43  16  33 W12G23    30.23S
GUNNISON       CLEAR     28  21  74 CALM      30.25S
KREMMLING      CLEAR     34  25  69 CALM      30.14R
LEADVILLE      CLEAR     25  15  66 CALM      30.23S
MONARCH PASS   PTCLDY    30  18  59 SW29      30.42S WCI  15
SALIDA         CLEAR     38  32  78 CALM      30.24S
SUNLIGHT       CLEAR     32  23  69 CALM      30.28S
WILKERSON PASS PTCLDY    30  18  59 SW13G21   30.28S WCI  20
$$

COZ069>075-180900-
...SAN LUIS VALLEY/SANGRE DE CRISTO MOUNTAINS...

CITY           SKY/WX    TMP DP  RH WIND       PRES   REMARKS
ALAMOSA        CLEAR     35  27  72 NE7       30.20S WCI  29
LA VETA PASS   CLEAR     34  19  55 SW16G28   30.24F WCI  23
SAGUACHE       NOT AVBL
$$

COZ035-036-038>040-180900-
...NORTHERN COLORADO FRONT RANGE...

CITY           SKY/WX    TMP DP  RH WIND       PRES   REMARKS
DENVER INTL AP MOCLDY    47  31  53 SW16      30.00F
DMNS CITY PARK   N/A     47  32  55 S6        30.00S
AURORA         PTCLDY    45  32  61 S15       30.01F
FRONT RANGE AP NOT AVBL
ERIE MUNI ARPT PTCLDY    42  34  75 S5        29.99F
BOULDER MUN AP PTCLDY    43  32  65 CALM      29.99F
CENTENNIAL     PTCLDY    42  31  64 SE9       30.02F
BROOMFIELD     PTCLDY    43  32  65 S5        30.01F
FORT COLLINS   CLEAR     39  28  65 NW6       30.01F
LONGMONT       CLEAR     39  31  72 SW3       30.01F
$$

COZ041-046-047-076>085-087-088-180900-
...PIKES PEAK/PALMER DIVIDE AND SOUTHERN FOOTHILLS...

CITY           SKY/WX    TMP DP  RH WIND       PRES   REMARKS
COLO. SPRINGS  PTCLDY    34  30  85 N8        30.10F WCI  27
A. F. ACADEMY  CLEAR     31  31  98 VRB5      30.10S WCI  27
ELLICOTT       NOT AVBL
FALCON         CLEAR     33  32  94 CALM      30.11F
FORT CARSON    CLEAR     34  32  93 NW5       30.08F WCI  30
LIMON          CLEAR     32  31  96 SE7       30.09F WCI  26
MONUMENT HILL  CLEAR     36  32  87 S12       30.08S
TRINIDAD       CLEAR     44  32  62 W21G33    30.09S
$$

COZ042>045-048>051-090-091-180900-
...NORTHEAST COLORADO...

CITY           SKY/WX    TMP DP  RH WIND       PRES   REMARKS
GREELEY ARPT   CLEAR     36  27  69 E3        30.00S
AKRON          CLEAR     40  34  79 S17G25    30.02F
BURLINGTON     CLEAR     37  32  82 S20       30.10F
WRAY           CLEAR     41  37  84 SW12      30.07F
STERLING       CLEAR     43  37  81 S7        30.00F
HOLYOKE        CLEAR     41  37  87 S10       30.05S
FORT MORGAN    CLEAR     39  33  78 CALM      30.02F
$$

COZ086-089-092>099-180900-
...SOUTHEAST COLORADO...

CITY           SKY/WX    TMP DP  RH WIND       PRES   REMARKS
PUEBLO         CLEAR     41  36  82 N7        30.07S
LA JUNTA       CLEAR     41  35  79 SE7       30.06F
LAMAR          CLEAR     42  34  73 S22G31    30.08F
SPRINGFIELD      N/A     36  34  92 S18       30.14F
$$



USA.gov is the U.S. government's official web portal to all federal, state and local government web resources and services.